GLO1616 SBGR-SBSG

Flight info

Callsign GLO1616
Flight time 2h 49m
Altitude 37000
Route AMVU6A VUMEV UZ14 ENVOG UZ1 LODOT UZ72 TOGU
Aircraft B738/M-SDFGIKLORWXY/LB1

Departure

Time 2026-05-04 11:14
Airport São Paulo/Guarulhos–Governor André Franco Montoro International Airport (SBGR)

Arrival

Time 2026-05-04 14:03
Airport Rio Grande do Norte/São Gonçalo do Amarante–Governador Aluízio Alves International Airport (SBSG)
Time Latitude Longitude Altitude Speed Heading
2026-05-04 11:05 -23.42809 -46.48243 2460 ft 0 kts 264°
2026-05-04 11:08 -23.42803 -46.48211 2460 ft 4 kts 249°
2026-05-04 11:10 -23.42749 -46.48160 2460 ft 0 kts 174°
2026-05-04 11:12 -23.43074 -46.48129 2460 ft 10 kts 175°
2026-05-04 11:12 -23.43142 -46.48117 2464 ft 10 kts 164°
2026-05-04 11:12 -23.43199 -46.48098 2460 ft 4 kts 163°
2026-05-04 11:12 -23.43222 -46.48091 2460 ft 4 kts 163°
2026-05-04 11:13 -23.43266 -46.48076 2462 ft 11 kts 163°
2026-05-04 11:13 -23.43329 -46.48026 2461 ft 10 kts 115°
2026-05-04 11:13 -23.43326 -46.47957 2467 ft 10 kts 74°
2026-05-04 11:13 -23.43241 -46.47640 2459 ft 82 kts 73°
2026-05-04 11:14 -23.43010 -46.46789 2463 ft 149 kts 73°
2026-05-04 11:14 -23.42645 -46.45506 2519 ft 201 kts 74°
2026-05-04 11:14 -23.42279 -46.44069 3460 ft 190 kts 72°
2026-05-04 11:16 -23.35326 -46.35720 7041 ft 272 kts 36°
2026-05-04 11:16 -23.33787 -46.34484 7802 ft 277 kts 36°
2026-05-04 11:16 -23.32222 -46.33219 8543 ft 282 kts 36°
2026-05-04 11:17 -23.30634 -46.31931 9301 ft 287 kts 36°
2026-05-04 11:17 -23.29020 -46.30617 10030 ft 292 kts 36°
2026-05-04 11:19 -23.15956 -46.19939 13795 ft 360 kts 36°
2026-05-04 11:19 -23.13943 -46.18292 14451 ft 364 kts 36°
2026-05-04 11:19 -23.11906 -46.16627 15077 ft 368 kts 36°
2026-05-04 11:19 -23.09850 -46.14948 15691 ft 372 kts 36°
2026-05-04 11:20 -23.07773 -46.13251 16296 ft 375 kts 36°
2026-05-04 11:20 -23.05675 -46.11538 16867 ft 379 kts 36°
2026-05-04 11:20 -23.03557 -46.09810 17446 ft 383 kts 36°
2026-05-04 11:20 -23.01447 -46.08089 18004 ft 386 kts 35°
2026-05-04 11:22 -22.85915 -45.95519 21676 ft 409 kts 33°
2026-05-04 11:22 -22.83577 -45.93760 22157 ft 411 kts 33°
2026-05-04 11:23 -22.81208 -45.92000 22618 ft 414 kts 32°
2026-05-04 11:23 -22.78821 -45.90227 23065 ft 417 kts 32°
2026-05-04 11:24 -22.64201 -45.79274 25562 ft 434 kts 32°
2026-05-04 11:25 -22.61708 -45.77402 25925 ft 437 kts 32°
2026-05-04 11:25 -22.59201 -45.75520 26291 ft 440 kts 32°
2026-05-04 11:25 -22.56712 -45.73653 26640 ft 442 kts 32°
2026-05-04 11:26 -22.51617 -45.69834 27334 ft 448 kts 32°
2026-05-04 11:27 -22.34244 -45.56836 29341 ft 463 kts 31°
2026-05-04 11:28 -22.31586 -45.54851 29621 ft 465 kts 31°
2026-05-04 11:28 -22.28915 -45.52858 29886 ft 467 kts 31°
2026-05-04 11:28 -22.26242 -45.50859 30119 ft 470 kts 31°
2026-05-04 11:28 -22.23545 -45.48847 30381 ft 471 kts 31°
2026-05-04 11:29 -22.20836 -45.46830 30655 ft 473 kts 31°
2026-05-04 11:29 -22.18126 -45.44813 30921 ft 475 kts 31°
2026-05-04 11:29 -22.15402 -45.42785 31191 ft 476 kts 31°
2026-05-04 11:29 -22.12670 -45.40751 31410 ft 478 kts 31°
2026-05-04 11:31 -21.93975 -45.25905 33501 ft 476 kts 35°
2026-05-04 11:33 -21.75865 -45.10565 35302 ft 472 kts 34°
2026-05-04 11:33 -21.73276 -45.08388 35543 ft 472 kts 34°
2026-05-04 11:33 -21.70716 -45.06236 35751 ft 471 kts 34°
2026-05-04 11:34 -21.68132 -45.04065 35960 ft 471 kts 34°
2026-05-04 11:34 -21.65891 -45.02184 36113 ft 471 kts 34°
2026-05-04 11:34 -21.63357 -45.00055 36278 ft 472 kts 34°
2026-05-04 11:34 -21.61100 -44.98160 36389 ft 474 kts 34°
2026-05-04 11:35 -21.58485 -44.95965 36496 ft 476 kts 34°
2026-05-04 11:35 -21.55861 -44.93764 36681 ft 476 kts 34°
2026-05-04 11:35 -21.53265 -44.91585 37069 ft 470 kts 34°
2026-05-04 11:35 -21.50697 -44.89431 37232 ft 470 kts 34°
2026-05-04 11:36 -21.45504 -44.85084 37235 ft 476 kts 34°
2026-05-04 11:36 -21.40247 -44.80686 37252 ft 481 kts 34°
2026-05-04 11:37 -21.34966 -44.76272 37241 ft 486 kts 34°
2026-05-04 11:37 -21.29609 -44.71807 37235 ft 488 kts 34°
2026-05-04 11:38 -21.24237 -44.67331 37248 ft 489 kts 34°
2026-05-04 11:38 -21.18859 -44.62853 37248 ft 490 kts 34°
2026-05-04 11:39 -21.13474 -44.58364 37247 ft 490 kts 34°
2026-05-04 11:41 -20.94744 -44.42784 37248 ft 486 kts 34°
2026-05-04 11:41 -20.89399 -44.38362 37247 ft 485 kts 34°
2026-05-04 11:42 -20.84061 -44.33948 37253 ft 484 kts 34°
2026-05-04 11:42 -20.78732 -44.29543 37257 ft 484 kts 34°
2026-05-04 11:43 -20.73413 -44.25151 37255 ft 483 kts 34°
2026-05-04 11:43 -20.68096 -44.20762 37260 ft 483 kts 34°
2026-05-04 11:44 -20.62782 -44.16376 37255 ft 483 kts 34°
2026-05-04 11:44 -20.57535 -44.11974 37260 ft 483 kts 35°
2026-05-04 11:45 -20.52259 -44.07537 37257 ft 483 kts 35°
2026-05-04 11:45 -20.46955 -44.03142 37260 ft 483 kts 34°
2026-05-04 11:46 -20.41616 -43.98790 37260 ft 482 kts 34°
2026-05-04 11:46 -20.36293 -43.94453 37263 ft 482 kts 34°
2026-05-04 11:47 -20.30972 -43.90112 37276 ft 482 kts 34°
2026-05-04 11:47 -20.25644 -43.85764 37262 ft 481 kts 34°
2026-05-04 11:48 -20.20328 -43.81427 37267 ft 482 kts 34°
2026-05-04 11:48 -20.15030 -43.77112 37263 ft 482 kts 34°
2026-05-04 11:49 -20.09700 -43.72773 37257 ft 482 kts 34°
2026-05-04 11:49 -20.04369 -43.68439 37260 ft 482 kts 34°
2026-05-04 11:50 -19.99036 -43.64106 37252 ft 482 kts 34°
2026-05-04 11:50 -19.93710 -43.59779 37263 ft 481 kts 34°
2026-05-04 11:51 -19.88378 -43.55455 37258 ft 482 kts 34°
2026-05-04 11:51 -19.83053 -43.51126 37257 ft 482 kts 34°
2026-05-04 11:52 -19.77725 -43.46793 37263 ft 482 kts 34°
2026-05-04 11:52 -19.72404 -43.42469 37257 ft 482 kts 34°
2026-05-04 11:53 -19.67114 -43.38175 37261 ft 482 kts 34°
2026-05-04 11:53 -19.61787 -43.33856 37260 ft 482 kts 34°
2026-05-04 11:55 -19.40484 -43.16602 37239 ft 481 kts 34°
2026-05-04 11:56 -19.35156 -43.12294 37231 ft 481 kts 34°
2026-05-04 11:56 -19.29839 -43.08001 37230 ft 481 kts 34°
2026-05-04 11:57 -19.24555 -43.03737 37235 ft 480 kts 34°
2026-05-04 11:57 -19.19206 -42.99424 37222 ft 480 kts 34°
2026-05-04 11:58 -19.13887 -42.95138 37226 ft 480 kts 34°
2026-05-04 11:58 -19.08572 -42.90859 37215 ft 480 kts 34°
2026-05-04 11:59 -19.03289 -42.86610 37227 ft 480 kts 35°
2026-05-04 11:59 -18.97973 -42.82336 37223 ft 480 kts 34°
2026-05-04 12:00 -18.92648 -42.78061 37221 ft 480 kts 34°
2026-05-04 12:00 -18.87315 -42.73793 37218 ft 480 kts 34°
2026-05-04 12:01 -18.81993 -42.69539 37230 ft 480 kts 34°
2026-05-04 12:02 -18.63384 -42.54683 37224 ft 480 kts 34°
2026-05-04 12:03 -18.58056 -42.50439 37221 ft 480 kts 34°
2026-05-04 12:03 -18.52730 -42.46198 37225 ft 480 kts 34°
2026-05-04 12:04 -18.47402 -42.41958 37205 ft 480 kts 34°
2026-05-04 12:04 -18.42075 -42.37723 37206 ft 480 kts 35°
2026-05-04 12:05 -18.36746 -42.33487 37202 ft 480 kts 35°
2026-05-04 12:05 -18.31445 -42.29280 37203 ft 479 kts 35°
2026-05-04 12:06 -18.26116 -42.25050 37206 ft 479 kts 35°
2026-05-04 12:06 -18.20793 -42.20823 37195 ft 479 kts 35°
2026-05-04 12:07 -18.15471 -42.16599 37203 ft 480 kts 35°
2026-05-04 12:07 -18.10140 -42.12372 37207 ft 480 kts 35°
2026-05-04 12:08 -18.04833 -42.08169 37198 ft 480 kts 35°
2026-05-04 12:08 -17.99496 -42.03942 37202 ft 480 kts 35°
2026-05-04 12:09 -17.94165 -41.99726 37205 ft 480 kts 35°
2026-05-04 12:09 -17.88821 -41.95502 37204 ft 480 kts 35°
2026-05-04 12:10 -17.83485 -41.91289 37202 ft 480 kts 35°
2026-05-04 12:10 -17.78153 -41.87081 37204 ft 480 kts 35°
2026-05-04 12:11 -17.72848 -41.82897 37203 ft 480 kts 35°
2026-05-04 12:11 -17.67514 -41.78692 37205 ft 480 kts 34°
2026-05-04 12:12 -17.62171 -41.74485 37198 ft 480 kts 35°
2026-05-04 12:12 -17.56827 -41.70280 37194 ft 480 kts 35°
2026-05-04 12:14 -17.35599 -41.55789 37186 ft 471 kts 11°
2026-05-04 12:15 -17.29187 -41.54371 37195 ft 471 kts
2026-05-04 12:15 -17.22771 -41.52951 37194 ft 471 kts
2026-05-04 12:16 -17.16373 -41.51470 37200 ft 471 kts 10°
2026-05-04 12:16 -17.09980 -41.49982 37196 ft 471 kts 10°
2026-05-04 12:17 -17.03614 -41.48497 37202 ft 471 kts 10°
2026-05-04 12:17 -16.97198 -41.47001 37206 ft 472 kts 10°
2026-05-04 12:18 -16.90787 -41.45506 37207 ft 472 kts 10°
2026-05-04 12:18 -16.84371 -41.44014 37204 ft 472 kts 10°
2026-05-04 12:19 -16.77953 -41.42520 37199 ft 472 kts 10°
2026-05-04 12:19 -16.71536 -41.41027 37204 ft 472 kts 10°
2026-05-04 12:20 -16.65125 -41.39535 37194 ft 472 kts 10°
2026-05-04 12:20 -16.58745 -41.38045 37197 ft 472 kts 10°
2026-05-04 12:21 -16.52329 -41.36548 37174 ft 472 kts 10°
2026-05-04 12:21 -16.45911 -41.35051 37177 ft 472 kts 10°
2026-05-04 12:22 -16.39489 -41.33554 37180 ft 473 kts 11°
2026-05-04 12:22 -16.33067 -41.32059 37172 ft 473 kts 11°
2026-05-04 12:23 -16.26647 -41.30565 37166 ft 473 kts 11°
2026-05-04 12:23 -16.20226 -41.29071 37166 ft 472 kts 11°
2026-05-04 12:24 -16.13817 -41.27581 37161 ft 472 kts 11°
2026-05-04 12:24 -16.07398 -41.26091 37169 ft 472 kts 11°
2026-05-04 12:25 -16.00989 -41.24603 37163 ft 472 kts 11°
2026-05-04 12:25 -15.94613 -41.23125 37159 ft 472 kts 11°
2026-05-04 12:26 -15.88163 -41.21628 37167 ft 472 kts 11°
2026-05-04 12:26 -15.81778 -41.20148 37168 ft 473 kts 11°
2026-05-04 12:27 -15.75358 -41.18659 37167 ft 473 kts 11°
2026-05-04 12:27 -15.68920 -41.17168 37158 ft 473 kts 11°
2026-05-04 12:28 -15.61921 -41.15557 37160 ft 474 kts 11°
2026-05-04 12:28 -15.55483 -41.14082 37154 ft 474 kts 11°
2026-05-04 12:29 -15.49038 -41.12605 37160 ft 474 kts 11°
2026-05-04 12:29 -15.42588 -41.11178 37154 ft 474 kts
2026-05-04 12:30 -15.36116 -41.09880 37157 ft 473 kts
2026-05-04 12:30 -15.29647 -41.08598 37148 ft 474 kts
2026-05-04 12:31 -15.23173 -41.07300 37160 ft 473 kts
2026-05-04 12:31 -15.16707 -41.05994 37156 ft 473 kts
2026-05-04 12:32 -15.07014 -41.04035 37155 ft 473 kts
2026-05-04 12:33 -15.00545 -41.02729 37158 ft 473 kts
2026-05-04 12:33 -14.94086 -41.01426 37159 ft 473 kts
2026-05-04 12:34 -14.87652 -41.00129 37157 ft 474 kts
2026-05-04 12:34 -14.81183 -40.98825 37157 ft 474 kts
2026-05-04 12:35 -14.75761 -40.97733 37155 ft 474 kts
2026-05-04 12:35 -14.69331 -40.96439 37159 ft 474 kts
2026-05-04 12:36 -14.62859 -40.95137 37154 ft 474 kts
2026-05-04 12:36 -14.56383 -40.93833 37155 ft 474 kts
2026-05-04 12:37 -14.49914 -40.92535 37143 ft 474 kts
2026-05-04 12:37 -14.43433 -40.91235 37150 ft 474 kts
2026-05-04 12:38 -14.36961 -40.89937 37144 ft 474 kts
2026-05-04 12:38 -14.30484 -40.88638 37156 ft 474 kts
2026-05-04 12:39 -14.24012 -40.87340 37155 ft 473 kts
2026-05-04 12:39 -14.17533 -40.86042 37154 ft 474 kts
2026-05-04 12:40 -14.11056 -40.84745 37158 ft 474 kts
2026-05-04 12:40 -14.04578 -40.83449 37158 ft 474 kts
2026-05-04 12:41 -13.98133 -40.82160 37155 ft 475 kts 10°
2026-05-04 12:41 -13.91653 -40.80864 37157 ft 475 kts 10°
2026-05-04 12:42 -13.85164 -40.79570 37157 ft 475 kts 10°
2026-05-04 12:42 -13.78673 -40.78273 37157 ft 475 kts 10°
2026-05-04 12:43 -13.72278 -40.76627 37154 ft 476 kts 21°
2026-05-04 12:43 -13.66436 -40.73400 37164 ft 477 kts 30°
2026-05-04 12:44 -13.60748 -40.69857 37156 ft 477 kts 30°
2026-05-04 12:44 -13.55049 -40.66350 37158 ft 477 kts 30°
2026-05-04 12:45 -13.49360 -40.62896 37159 ft 477 kts 30°
2026-05-04 12:45 -13.43640 -40.59439 37154 ft 477 kts 30°
2026-05-04 12:46 -13.37901 -40.55972 37158 ft 478 kts 30°
2026-05-04 12:46 -13.32172 -40.52509 37154 ft 478 kts 30°
2026-05-04 12:47 -13.26441 -40.49047 37157 ft 478 kts 30°
2026-05-04 12:47 -13.20713 -40.45587 37160 ft 477 kts 30°
2026-05-04 12:48 -13.14981 -40.42127 37155 ft 477 kts 30°
2026-05-04 12:48 -13.09262 -40.38677 37158 ft 477 kts 30°
2026-05-04 12:49 -13.03538 -40.35227 37154 ft 477 kts 30°
2026-05-04 12:49 -12.97802 -40.31775 37159 ft 477 kts 30°
2026-05-04 12:50 -12.92108 -40.28351 37151 ft 477 kts 30°
2026-05-04 12:50 -12.86380 -40.24907 37161 ft 477 kts 30°
2026-05-04 12:51 -12.80657 -40.21465 37156 ft 477 kts 30°
2026-05-04 12:51 -12.74930 -40.18024 37152 ft 477 kts 30°
2026-05-04 12:52 -12.69245 -40.14608 37149 ft 477 kts 30°
2026-05-04 12:52 -12.63524 -40.11173 37148 ft 477 kts 30°
2026-05-04 12:53 -12.57803 -40.07742 37147 ft 476 kts 30°
2026-05-04 12:53 -12.52082 -40.04311 37148 ft 476 kts 30°
2026-05-04 12:54 -12.46358 -40.00881 37149 ft 476 kts 30°
2026-05-04 12:54 -12.40639 -39.97454 37138 ft 477 kts 30°
2026-05-04 12:55 -12.34906 -39.94022 37140 ft 476 kts 30°
2026-05-04 12:55 -12.29182 -39.90598 37133 ft 476 kts 30°
2026-05-04 12:56 -12.23505 -39.87202 37127 ft 476 kts 30°
2026-05-04 12:56 -12.17782 -39.83781 37132 ft 476 kts 30°
2026-05-04 12:57 -12.12060 -39.80361 37129 ft 476 kts 30°
2026-05-04 12:57 -12.06337 -39.76943 37127 ft 476 kts 30°
2026-05-04 12:58 -12.00614 -39.73526 37123 ft 477 kts 30°
2026-05-04 12:58 -11.94886 -39.70109 37119 ft 477 kts 30°
2026-05-04 12:59 -11.89160 -39.66694 37119 ft 476 kts 30°
2026-05-04 12:59 -11.83449 -39.63265 37118 ft 476 kts 30°
2026-05-04 13:00 -11.77742 -39.59826 37122 ft 476 kts 30°
2026-05-04 13:00 -11.72055 -39.56434 37122 ft 476 kts 30°
2026-05-04 13:01 -11.66335 -39.53034 37113 ft 476 kts 30°
2026-05-04 13:01 -11.60608 -39.49625 37111 ft 476 kts 30°
2026-05-04 13:02 -11.54885 -39.46217 37114 ft 477 kts 30°
2026-05-04 13:02 -11.49158 -39.42808 37112 ft 477 kts 30°
2026-05-04 13:03 -11.43429 -39.39399 37110 ft 477 kts 30°
2026-05-04 13:03 -11.37703 -39.35994 37119 ft 476 kts 30°
2026-05-04 13:04 -11.32006 -39.32608 37122 ft 477 kts 30°
2026-05-04 13:04 -11.26276 -39.29204 37119 ft 477 kts 30°
2026-05-04 13:05 -11.20542 -39.25798 37120 ft 477 kts 30°
2026-05-04 13:05 -11.14803 -39.22391 37123 ft 477 kts 30°
2026-05-04 13:06 -11.09070 -39.18989 37119 ft 477 kts 30°
2026-05-04 13:06 -11.03336 -39.15588 37120 ft 477 kts 30°
2026-05-04 13:07 -10.97601 -39.12190 37119 ft 477 kts 30°
2026-05-04 13:07 -10.91866 -39.08792 37119 ft 477 kts 30°
2026-05-04 13:08 -10.86127 -39.05393 37109 ft 477 kts 30°
2026-05-04 13:08 -10.80436 -39.02024 37105 ft 477 kts 30°
2026-05-04 13:09 -10.74696 -38.98629 37103 ft 477 kts 30°
2026-05-04 13:09 -10.68954 -38.95233 37100 ft 477 kts 30°
2026-05-04 13:10 -10.63216 -38.91840 37098 ft 477 kts 30°
2026-05-04 13:10 -10.57479 -38.88450 37104 ft 476 kts 30°
2026-05-04 13:11 -10.51743 -38.85062 37102 ft 476 kts 30°
2026-05-04 13:11 -10.46048 -38.81700 37095 ft 477 kts 30°
2026-05-04 13:12 -10.40311 -38.78314 37109 ft 477 kts 30°
2026-05-04 13:12 -10.34576 -38.74931 37104 ft 477 kts 30°
2026-05-04 13:13 -10.28829 -38.71542 37100 ft 477 kts 30°
2026-05-04 13:13 -10.23089 -38.68159 37102 ft 476 kts 30°
2026-05-04 13:14 -10.17387 -38.64799 37109 ft 476 kts 29°
2026-05-04 13:14 -10.11656 -38.61424 37105 ft 476 kts 29°
2026-05-04 13:15 -10.05917 -38.58045 37094 ft 476 kts 29°
2026-05-04 13:15 -10.00192 -38.54677 37105 ft 476 kts 29°
2026-05-04 13:16 -9.94452 -38.51300 37108 ft 476 kts 29°
2026-05-04 13:16 -9.88718 -38.47930 37107 ft 476 kts 29°
2026-05-04 13:17 -9.82973 -38.44552 37100 ft 476 kts 29°
2026-05-04 13:17 -9.77277 -38.41204 37096 ft 476 kts 29°
2026-05-04 13:18 -9.71529 -38.37839 37107 ft 477 kts 29°
2026-05-04 13:18 -9.65774 -38.34491 37099 ft 476 kts 29°
2026-05-04 13:19 -9.60031 -38.31151 37097 ft 476 kts 29°
2026-05-04 13:19 -9.54282 -38.27804 37104 ft 477 kts 29°
2026-05-04 13:20 -9.48529 -38.24456 37104 ft 476 kts 29°
2026-05-04 13:20 -9.42816 -38.21133 37101 ft 476 kts 29°
2026-05-04 13:21 -9.37062 -38.17787 37107 ft 476 kts 29°
2026-05-04 13:21 -9.31314 -38.14445 37098 ft 476 kts 29°
2026-05-04 13:22 -9.26530 -38.11665 37102 ft 477 kts 29°
2026-05-04 13:22 -9.20778 -38.08322 37097 ft 476 kts 29°
2026-05-04 13:23 -9.15028 -38.04982 37100 ft 476 kts 29°
2026-05-04 13:23 -9.09278 -38.01634 37099 ft 476 kts 29°
2026-05-04 13:24 -9.03536 -37.98279 37099 ft 476 kts 29°
2026-05-04 13:24 -8.97838 -37.94950 37103 ft 476 kts 29°
2026-05-04 13:25 -8.89242 -37.89932 37104 ft 475 kts 29°
2026-05-04 13:25 -8.83517 -37.86593 37106 ft 475 kts 29°
2026-05-04 13:26 -8.77791 -37.83255 37097 ft 475 kts 29°
2026-05-04 13:26 -8.72100 -37.79937 37099 ft 475 kts 29°
2026-05-04 13:27 -8.66376 -37.76601 37086 ft 475 kts 29°
2026-05-04 13:27 -8.60650 -37.73265 37087 ft 474 kts 29°
2026-05-04 13:28 -8.54932 -37.69936 37089 ft 474 kts 29°
2026-05-04 13:28 -8.49212 -37.66607 37089 ft 474 kts 29°
2026-05-04 13:29 -8.43506 -37.63286 37083 ft 473 kts 29°
2026-05-04 13:29 -8.37797 -37.59964 37092 ft 473 kts 29°
2026-05-04 13:30 -8.32118 -37.56661 37095 ft 473 kts 29°
2026-05-04 13:30 -8.26405 -37.53339 37087 ft 473 kts 29°
2026-05-04 13:31 -8.20691 -37.50019 37100 ft 474 kts 29°
2026-05-04 13:31 -8.14983 -37.46702 37084 ft 474 kts 29°
2026-05-04 13:32 -8.09283 -37.43355 37083 ft 474 kts 32°
2026-05-04 13:32 -8.04082 -37.39239 37097 ft 475 kts 39°
2026-05-04 13:33 -7.99040 -37.34913 37105 ft 475 kts 39°
2026-05-04 13:33 -7.93986 -37.30612 37085 ft 476 kts 39°
2026-05-04 13:34 -7.88897 -37.26337 37096 ft 476 kts 39°
2026-05-04 13:34 -7.83801 -37.22079 37090 ft 475 kts 39°
2026-05-04 13:35 -7.76192 -37.15729 37093 ft 475 kts 39°
2026-05-04 13:36 -7.71092 -37.11472 37084 ft 476 kts 39°
2026-05-04 13:36 -7.66001 -37.07221 37097 ft 475 kts 39°
2026-05-04 13:37 -7.60893 -37.02961 37079 ft 476 kts 39°
2026-05-04 13:37 -7.55797 -36.98709 37084 ft 476 kts 39°
2026-05-04 13:38 -7.50705 -36.94462 37083 ft 476 kts 39°
2026-05-04 13:38 -7.45605 -36.90210 37080 ft 476 kts 39°
2026-05-04 13:39 -7.40505 -36.85959 37073 ft 476 kts 39°
2026-05-04 13:39 -7.35402 -36.81707 37077 ft 475 kts 39°
2026-05-04 13:40 -7.30336 -36.77488 37086 ft 475 kts 39°
2026-05-04 13:40 -7.27784 -36.75363 36955 ft 476 kts 39°
2026-05-04 13:40 -7.25221 -36.73230 36465 ft 474 kts 39°
2026-05-04 13:40 -7.22685 -36.71118 35797 ft 473 kts 39°
2026-05-04 13:41 -7.20149 -36.69008 35095 ft 474 kts 39°
2026-05-04 13:41 -7.17599 -36.66886 34383 ft 475 kts 39°
2026-05-04 13:41 -7.15046 -36.64761 33659 ft 477 kts 39°
2026-05-04 13:42 -7.09910 -36.60489 32140 ft 480 kts 39°
2026-05-04 13:42 -7.07331 -36.58344 31331 ft 481 kts 39°
2026-05-04 13:42 -7.04743 -36.56192 30502 ft 483 kts 39°
2026-05-04 13:42 -7.02192 -36.54071 29937 ft 479 kts 39°
2026-05-04 13:43 -6.99632 -36.51942 29335 ft 475 kts 39°
2026-05-04 13:43 -6.97090 -36.49829 28734 ft 472 kts 39°
2026-05-04 13:43 -6.94569 -36.47733 28133 ft 467 kts 39°
2026-05-04 13:43 -6.92076 -36.45662 27545 ft 463 kts 40°
2026-05-04 13:44 -6.89602 -36.43607 26951 ft 459 kts 40°
2026-05-04 13:44 -6.87158 -36.41564 26344 ft 455 kts 40°
2026-05-04 13:44 -6.84731 -36.39547 25751 ft 451 kts 40°
2026-05-04 13:44 -6.82325 -36.37552 25162 ft 447 kts 40°
2026-05-04 13:45 -6.79940 -36.35576 24577 ft 442 kts 40°
2026-05-04 13:45 -6.77575 -36.33616 23994 ft 438 kts 40°
2026-05-04 13:45 -6.75232 -36.31674 23420 ft 433 kts 40°
2026-05-04 13:45 -6.72917 -36.29754 22843 ft 428 kts 40°
2026-05-04 13:46 -6.70634 -36.27859 22277 ft 424 kts 40°
2026-05-04 13:46 -6.68376 -36.25986 21696 ft 420 kts 40°
2026-05-04 13:46 -6.66130 -36.24121 21125 ft 416 kts 40°
2026-05-04 13:46 -6.63907 -36.22276 20581 ft 412 kts 40°
2026-05-04 13:47 -6.61709 -36.20453 20013 ft 408 kts 40°
2026-05-04 13:47 -6.59523 -36.18640 19459 ft 405 kts 40°
2026-05-04 13:47 -6.57392 -36.16871 18931 ft 400 kts 40°
2026-05-04 13:47 -6.55252 -36.15098 18378 ft 396 kts 40°
2026-05-04 13:48 -6.53130 -36.13337 17823 ft 394 kts 40°
2026-05-04 13:48 -6.51026 -36.11592 17277 ft 391 kts 40°
2026-05-04 13:48 -6.48935 -36.09859 16732 ft 388 kts 40°
2026-05-04 13:48 -6.46865 -36.08143 16203 ft 384 kts 40°
2026-05-04 13:49 -6.44811 -36.06439 15670 ft 381 kts 40°
2026-05-04 13:49 -6.42773 -36.04751 15147 ft 378 kts 40°
2026-05-04 13:49 -6.40760 -36.03082 14636 ft 374 kts 40°
2026-05-04 13:49 -6.38750 -36.01417 14107 ft 371 kts 40°
2026-05-04 13:50 -6.36768 -35.99774 13594 ft 368 kts 40°
2026-05-04 13:50 -6.34793 -35.98138 13081 ft 366 kts 40°
2026-05-04 13:50 -6.32839 -35.96521 12574 ft 363 kts 40°
2026-05-04 13:50 -6.30923 -35.94934 12074 ft 360 kts 40°
2026-05-04 13:51 -6.28994 -35.93337 11572 ft 357 kts 40°
2026-05-04 13:51 -6.27056 -35.91733 11068 ft 355 kts 40°
2026-05-04 13:51 -6.25203 -35.90198 10888 ft 343 kts 40°
2026-05-04 13:51 -6.23393 -35.88700 10717 ft 332 kts 40°
2026-05-04 13:52 -6.19927 -35.85832 10427 ft 312 kts 40°
2026-05-04 13:52 -6.18280 -35.84469 10288 ft 302 kts 40°
2026-05-04 13:52 -6.16680 -35.83145 10160 ft 293 kts 40°
2026-05-04 13:53 -6.15131 -35.81863 10036 ft 284 kts 40°
2026-05-04 13:53 -6.13615 -35.80610 9777 ft 282 kts 40°
2026-05-04 13:53 -6.12107 -35.79361 9497 ft 280 kts 40°
2026-05-04 13:54 -6.09117 -35.76885 8921 ft 277 kts 40°
2026-05-04 13:54 -6.07634 -35.75658 8632 ft 275 kts 40°
2026-05-04 13:54 -6.04703 -35.73236 8048 ft 274 kts 41°
2026-05-04 13:55 -6.03237 -35.72020 7762 ft 273 kts 41°
2026-05-04 13:55 -6.00315 -35.69604 7191 ft 271 kts 41°
2026-05-04 13:55 -5.98865 -35.68409 6902 ft 269 kts 41°
2026-05-04 13:56 -5.97423 -35.67211 6619 ft 267 kts 41°
2026-05-04 13:56 -5.95995 -35.66027 6330 ft 267 kts 41°
2026-05-04 13:56 -5.93144 -35.63672 5771 ft 264 kts 41°
2026-05-04 13:57 -5.91730 -35.62503 5490 ft 262 kts 41°
2026-05-04 13:57 -5.90329 -35.61345 5220 ft 260 kts 41°
2026-05-04 13:58 -5.86149 -35.57892 4411 ft 259 kts 41°
2026-05-04 13:58 -5.83165 -35.55935 3794 ft 263 kts 12°
2026-05-04 13:58 -5.81373 -35.55660 3651 ft 254 kts
2026-05-04 13:59 -5.79694 -35.55405 3657 ft 232 kts 10°
2026-05-04 13:59 -5.78168 -35.55155 3618 ft 213 kts 11°
2026-05-04 13:59 -5.75338 -35.54425 3206 ft 207 kts 44°
2026-05-04 14:00 -5.74596 -35.53261 3020 ft 197 kts 77°
2026-05-04 14:00 -5.74703 -35.50567 2614 ft 191 kts 101°
2026-05-04 14:00 -5.74908 -35.49284 2354 ft 180 kts 101°
2026-05-04 14:01 -5.75107 -35.48097 2145 ft 166 kts 101°
2026-05-04 14:01 -5.75292 -35.46991 1975 ft 158 kts 101°
2026-05-04 14:01 -5.75652 -35.44813 1638 ft 159 kts 101°
2026-05-04 14:02 -5.75830 -35.43729 1440 ft 154 kts 100°
2026-05-04 14:02 -5.75999 -35.42691 1266 ft 154 kts 100°
2026-05-04 14:02 -5.76173 -35.41629 1065 ft 154 kts 100°
2026-05-04 14:02 -5.76347 -35.40562 859 ft 155 kts 100°
2026-05-04 14:03 -5.76521 -35.39492 652 ft 156 kts 100°
2026-05-04 14:03 -5.76693 -35.38400 372 ft 160 kts 99°
2026-05-04 14:03 -5.76865 -35.37337 273 ft 144 kts 100°
2026-05-04 14:03 -5.76968 -35.36726 273 ft 48 kts 97°
2026-05-04 14:04 -5.76840 -35.36454 273 ft 19 kts 294°
2026-05-04 14:04 -5.76816 -35.36581 273 ft 18 kts 279°
2026-05-04 14:04 -5.76795 -35.36705 273 ft 18 kts 279°
2026-05-04 14:05 -5.76755 -35.36939 278 ft 16 kts 278°
2026-05-04 14:05 -5.76739 -35.37050 275 ft 16 kts 279°
2026-05-04 14:05 -5.76721 -35.37165 273 ft 18 kts 279°
2026-05-04 14:06 -5.76634 -35.37249 273 ft 19 kts 355°
2026-05-04 14:06 -5.76524 -35.37246 273 ft 15 kts 359°
2026-05-04 14:06 -5.76452 -35.37235 273 ft 0 kts